7 * 24
多渠道服务支持
STARLINK-36043是美国SpaceX公司星链(Starlink)星座的一颗低轨通信卫星,于2025年12月4日发射入轨。作为星链全球组网的组成部分,它运行在近地轨道,依托星链成熟的相控阵天线与激光星间链路技术,为全球偏远地区提供高速低延迟宽带互联网接入。该卫星延续了星链迭代后的技术设计,配备氩霍尔推进系统支持轨道机动,加入后进一步扩充了星链星座规模,助力实现全球无缝覆盖的卫星通信网络目标。
美国
(US)
| 数据来源 | 国际轨道数据 |
| 星历时间: | 2026-04-29T02:53:17+0800 6小时前 查看轨道信息 |
| 半长轴: | 6853.364km |
| 偏心率: | 0.0001178 |
| 轨道倾角: | 53.157° |
| 近地点辐角 | 79.833° |
| 升交点赤经 | 151.512° |
| 平近点角 | 280.280° |
| 近地点: | 474.419km |
| 远地点: | 476.035km |
| 周期: | 94.106分钟 |
| 每日圈数: | 15.301963 |